Location: Home
(42.5358°N, 72.7383°W)
Time: 09:40:15
(UTC-05:00)

Transit 2A Rocket - Pass Details

Date: 30 November 2021
Orbit: 584 x 917 km, 66.7° (Epoch: 23 January)

Event Time Altitude Azimuth Distance (km) Brightness Sun altitude
Rises 17:52:28 0° 323° (NW) 3,555 8.8 -16.8°
Reaches altitude 10° 17:55:11 10° 316° (NW) 2,592 8.1 -17.3°
Maximum altitude 18:00:45 40° 249° (WSW) 1,277 6.7 -18.3°
Drops below altitude 10° 18:05:59 10° 182° (S) 2,433 7.8 -19.2°
Sets 18:08:28 0° 175° (S) 3,313 8.4 -19.6°
